Stündliche Wetter Dziekszyn

Heute, 14 Juni, Montag

Zeit Temperatur Niederschläge Wind Luftdruck Luftfeuchtigkeit
00:00 +9°C° 0 mm 3 m/S 758 mmHg 89%
01:00 +8°C° 0 mm 3 m/S 758 mmHg 92%
02:00 +8°C° 0 mm 3 m/S 758 mmHg 93%
03:00 +8°C° 0 mm 3 m/S 758 mmHg 93%
04:00 +8°C° 0 mm 2 m/S 758 mmHg 94%
05:00 +10°C° 0 mm 3 m/S 758 mmHg 89%
06:00 +12°C° 0 mm 3 m/S 758 mmHg 83%
07:00 +14°C° 0 mm 3 m/S 758 mmHg 78%
08:00 +16°C° 0 mm 3 m/S 758 mmHg 72%
09:00 +17°C° 0 mm 3 m/S 758 mmHg 65%
10:00 +19°C° 0 mm 3 m/S 757 mmHg 59%
11:00 +20°C° 0 mm 3 m/S 757 mmHg 56%
12:00 +21°C° 0 mm 2 m/S 757 mmHg 53%
13:00 +21°C° 0 mm 2 m/S 756 mmHg 50%
14:00 +23°C° 0 mm 2 m/S 756 mmHg 50%
15:00 +23°C° 0 mm 2 m/S 756 mmHg 50%
16:00 +23°C° 0 mm 2 m/S 755 mmHg 50%
17:00 +21°C° 0 mm 2 m/S 755 mmHg 57%
18:00 +20°C° 0 mm 2 m/S 755 mmHg 63%
19:00 +19°C° 0 mm 2 m/S 754 mmHg 70%
20:00 +18°C° 0 mm 3 m/S 754 mmHg 72%
21:00 +17°C° 0 mm 3 m/S 755 mmHg 74%
22:00 +14°C° 0 mm 3 m/S 755 mmHg 76%
23:00 +14°C° 0 mm 3 m/S 754 mmHg 76%

Morgen, 15 Juni, Dienstag

Zeit Temperatur Niederschläge Wind Luftdruck Luftfeuchtigkeit
00:00 +14°C° 0 mm 3 m/S 754 mmHg 76%
01:00 +13°C° 0 mm 3 m/S 754 mmHg 76%
02:00 +13°C° 0 mm 3 m/S 754 mmHg 76%
03:00 +13°C° 0 mm 3 m/S 754 mmHg 77%
04:00 +13°C° 0 mm 3 m/S 754 mmHg 77%
05:00 +14°C° 0 mm 3 m/S 754 mmHg 76%
06:00 +17°C° 0 mm 3 m/S 754 mmHg 75%
07:00 +18°C° 0 mm 3 m/S 754 mmHg 74%
08:00 +19°C° 0 mm 3 m/S 754 mmHg 71%
09:00 +21°C° 0 mm 3 m/S 754 mmHg 68%
10:00 +22°C° 0 mm 3 m/S 754 mmHg 64%
11:00 +22°C° 0 mm 3 m/S 754 mmHg 64%
12:00 +24°C° 0 mm 3 m/S 754 mmHg 64%
13:00 +24°C° 0 mm 3 m/S 754 mmHg 63%
14:00 +22°C° 0.6 mm 3 m/S 754 mmHg 69%
15:00 +21°C° 0.6 mm 3 m/S 754 mmHg 74%
16:00 +21°C° 0.6 mm 4 m/S 754 mmHg 80%
17:00 +20°C° 0.3 mm 3 m/S 754 mmHg 81%
18:00 +19°C° 0.3 mm 3 m/S 754 mmHg 82%
19:00 +19°C° 0.3 mm 3 m/S 754 mmHg 82%
20:00 +17°C° 0 mm 3 m/S 754 mmHg 80%
21:00 +14°C° 0 mm 3 m/S 755 mmHg 78%
22:00 +12°C° 0 mm 3 m/S 755 mmHg 77%
23:00 +11°C° 0 mm 3 m/S 755 mmHg 79%

übermorgen, 16 Juni, Mittwoch

Zeit Temperatur Niederschläge Wind Luftdruck Luftfeuchtigkeit
00:00 +10°C° 0 mm 3 m/S 755 mmHg 82%
01:00 +10°C° 0 mm 3 m/S 755 mmHg 84%
02:00 +9°C° 0 mm 2 m/S 756 mmHg 86%
03:00 +9°C° 0 mm 2 m/S 756 mmHg 88%
04:00 +9°C° 0 mm 2 m/S 756 mmHg 90%
05:00 +12°C° 0 mm 2 m/S 756 mmHg 85%
06:00 +13°C° 0 mm 2 m/S 756 mmHg 79%
07:00 +15°C° 0 mm 2 m/S 756 mmHg 74%
08:00 +17°C° 0 mm 2 m/S 756 mmHg 69%
09:00 +18°C° 0 mm 2 m/S 756 mmHg 64%
10:00 +19°C° 0 mm 2 m/S 756 mmHg 60%
11:00 +20°C° 0 mm 2 m/S 756 mmHg 56%
12:00 +21°C° 0 mm 2 m/S 756 mmHg 53%
13:00 +23°C° 0 mm 2 m/S 756 mmHg 50%
14:00 +23°C° 0 mm 2 m/S 756 mmHg 50%
15:00 +23°C° 0 mm 2 m/S 756 mmHg 50%
16:00 +24°C° 0 mm 2 m/S 756 mmHg 49%
17:00 +23°C° 0 mm 2 m/S 756 mmHg 56%
18:00 +20°C° 0 mm 2 m/S 755 mmHg 62%
19:00 +19°C° 0 mm 2 m/S 755 mmHg 69%
20:00 +18°C° 0 mm 2 m/S 756 mmHg 70%
21:00 +16°C° 0 mm 3 m/S 756 mmHg 71%
22:00 +14°C° 0 mm 3 m/S 756 mmHg 72%
23:00 +13°C° 0 mm 3 m/S 756 mmHg 74%

17 Juni, Donnerstag

Zeit Temperatur Niederschläge Wind Luftdruck Luftfeuchtigkeit
00:00 +13°C° 0 mm 3 m/S 756 mmHg 75%
01:00 +12°C° 0 mm 3 m/S 756 mmHg 76%
02:00 +12°C° 0 mm 3 m/S 756 mmHg 78%
03:00 +12°C° 0 mm 3 m/S 756 mmHg 80%
04:00 +11°C° 0 mm 3 m/S 756 mmHg 82%
05:00 +13°C° 0 mm 3 m/S 756 mmHg 77%
06:00 +15°C° 0 mm 4 m/S 756 mmHg 73%
07:00 +18°C° 0 mm 4 m/S 756 mmHg 68%
08:00 +19°C° 0 mm 4 m/S 756 mmHg 63%
09:00 +21°C° 0 mm 5 m/S 756 mmHg 59%
10:00 +22°C° 0 mm 5 m/S 756 mmHg 54%
11:00 +23°C° 0 mm 5 m/S 756 mmHg 52%
12:00 +23°C° 0 mm 5 m/S 756 mmHg 49%
13:00 +25°C° 0 mm 5 m/S 756 mmHg 47%
14:00 +25°C° 0 mm 5 m/S 756 mmHg 49%
15:00 +25°C° 0 mm 5 m/S 755 mmHg 50%
16:00 +25°C° 0 mm 5 m/S 755 mmHg 52%
17:00 +23°C° 0 mm 4 m/S 755 mmHg 59%
18:00 +22°C° 0 mm 4 m/S 755 mmHg 66%
19:00 +21°C° 0 mm 3 m/S 755 mmHg 73%
20:00 +19°C° 0 mm 3 m/S 755 mmHg 74%
21:00 +18°C° 0 mm 3 m/S 755 mmHg 76%
22:00 +17°C° 0 mm 4 m/S 755 mmHg 77%
23:00 +15°C° 0 mm 4 m/S 755 mmHg 79%

18 Juni, Freitag

Zeit Temperatur Niederschläge Wind Luftdruck Luftfeuchtigkeit
00:00 +15°C° 0 mm 4 m/S 755 mmHg 81%
01:00 +14°C° 0 mm 3 m/S 755 mmHg 83%
02:00 +14°C° 0 mm 3 m/S 755 mmHg 86%
03:00 +14°C° 0 mm 3 m/S 755 mmHg 88%
04:00 +14°C° 0 mm 3 m/S 754 mmHg 91%
05:00 +17°C° 0 mm 4 m/S 754 mmHg 86%
06:00 +19°C° 0 mm 4 m/S 754 mmHg 81%
07:00 +21°C° 0 mm 5 m/S 754 mmHg 76%
08:00 +22°C° 0 mm 5 m/S 754 mmHg 71%
09:00 +24°C° 0 mm 6 m/S 754 mmHg 67%
10:00 +26°C° 0 mm 6 m/S 754 mmHg 62%
11:00 +27°C° 0 mm 6 m/S 754 mmHg 59%
12:00 +28°C° 0 mm 6 m/S 754 mmHg 56%
13:00 +29°C° 0 mm 6 m/S 754 mmHg 53%
14:00 +29°C° 0 mm 5 m/S 754 mmHg 54%
15:00 +30°C° 0 mm 5 m/S 754 mmHg 55%
16:00 +30°C° 0 mm 5 m/S 754 mmHg 56%
17:00 +28°C° 0 mm 4 m/S 753 mmHg 62%
18:00 +27°C° 0 mm 4 m/S 753 mmHg 68%
19:00 +26°C° 0 mm 4 m/S 753 mmHg 74%
20:00 +23°C° 0 mm 4 m/S 754 mmHg 76%
21:00 +22°C° 0 mm 4 m/S 754 mmHg 78%
22:00 +21°C° 0 mm 4 m/S 754 mmHg 80%
23:00 +20°C° 0 mm 3 m/S 754 mmHg 83%

19 Juni, Samstag

Zeit Temperatur Niederschläge Wind Luftdruck Luftfeuchtigkeit
00:00 +20°C° 0 mm 3 m/S 755 mmHg 87%
01:00 +19°C° 0 mm 3 m/S 755 mmHg 90%
02:00 +19°C° 0 mm 3 m/S 755 mmHg 91%
03:00 +19°C° 0 mm 3 m/S 755 mmHg 93%
04:00 +19°C° 0 mm 3 m/S 755 mmHg 94%
05:00 +20°C° 0 mm 3 m/S 755 mmHg 88%
06:00 +22°C° 0 mm 4 m/S 755 mmHg 82%
07:00 +23°C° 0 mm 4 m/S 755 mmHg 76%
08:00 +25°C° 0 mm 4 m/S 755 mmHg 71%
09:00 +27°C° 0 mm 4 m/S 755 mmHg 66%
10:00 +28°C° 0 mm 5 m/S 755 mmHg 61%
11:00 +28°C° 0 mm 5 m/S 755 mmHg 57%
12:00 +29°C° 0 mm 5 m/S 755 mmHg 53%
13:00 +29°C° 0 mm 5 m/S 755 mmHg 50%
14:00 +29°C° 0 mm 5 m/S 755 mmHg 51%
15:00 +29°C° 0 mm 5 m/S 754 mmHg 52%
16:00 +29°C° 0 mm 5 m/S 754 mmHg 53%
17:00 +28°C° 0 mm 4 m/S 754 mmHg 61%
18:00 +27°C° 0 mm 4 m/S 754 mmHg 68%
19:00 +25°C° 0 mm 3 m/S 754 mmHg 76%
20:00 +23°C° 0 mm 4 m/S 754 mmHg 78%
21:00 +22°C° 0 mm 5 m/S 754 mmHg 80%
22:00 +21°C° 0 mm 5 m/S 754 mmHg 82%
23:00 +21°C° 0 mm 5 m/S 754 mmHg 86%
Mehr zeigen

Wir brauchen deine Erlaubnis

Meteoprog und unser Service Anbieter werden persönliche Daten aufbewahren, so wie Cookies, Geräte Bezeichnung oder ähnliche Technologien von deinem Gerät und Prozess, so wie Persönliche Daten Inhalte und Werbungen, genauso wie social Media und den Verkehr zu analysieren.

  • Aufbewahrung und/oder Zugang zu deiner Geräte Informationen.

    Cookies, Geräte Bezeichnung oder andere Informationen, können aufbewahrt oder Zugang zu deinem Gerät erhalten, für den Grund, der oben angegeben wird.

  • Personalisierte Werbung und Inhalte, Messungen, Einblick in das Publikum und Produkt Entwicklung.

    Werbungen und Inhalte können personalisiert werden, basierend auf ein Profil. Mehr Daten können besser personalisierte Werbungen und Inhalte hinzufügen. Werbung und Inhalte können gezeigt und gemessen werden. Einblicke über das Publikum, welche die Werbung gesehen haben und den Inhalt, können abgeleitet werden. So wie Daten können genutzt werden, um es zu verbessern oder die Benutzer Erfahrung zu verbessern das System und die Software.

Wenn du “Ich stimme zu” klickst, erlaubst du uns, die Cookies zu benutzen die Geräte Bezeichnung, den Web oder ähnliche Technologien zu benutzen. Deine Settings, können in deinem Gerät bei deinem Browser geändert werden.

Für den bestimmten Zweck, berechtigten Interessen beruhen darauf, mehr als auf den Inhalt. Du kannst mehr darüber in unseren Privaten und Cookie Politik lesen.